Location: Gwatt
(46.7204°N, 7.6223°E)
Time: 07:46:49
(UTC+00:00)

S-56A Canister/Altair - Pass Details

Date: 21 January 2021
Orbit: 632 x 2501 km, 38.9° (Epoch: 08 March)

Event Time Altitude Azimuth Distance (km) Brightness Sun altitude
Rises 04:40:36 0° 251° (WSW) 2,936 - -24.5°
Reaches altitude 10° 04:42:52 10° 242° (WSW) 2,088 - -24.1°
Exits shadow 04:46:00 32° 204° (SSW) 1,243 8.4 -23.6°
Maximum altitude 04:47:10 36° 175° (S) 1,190 8.5 -23.4°
Drops below altitude 10° 04:52:39 10° 110° (ESE) 2,686 11.4 -22.4°
Sets 04:55:57 0° 103° (ESE) 3,915 12.7 -21.9°
